Starlink 4055

operational
NORAD ID: 53161 Int'l Des: 2022-083 Owner: SPXS Country: US Constellation: starlink
LEOCIRCULAR

关于 Starlink 4055

正在加载描述...

实时位置

正在加载3D地球...

即将过境

高度历史

Altitude vs Time

uPlot chart will show altitude changes over time

两行轨道根数

1 53161U 22083AF 25296.77943837 .00000282 00000-0 35796-4 0 9999
2 53161 53.2177 58.7336 0001229 88.1784 271.9349 15.08837801180695
Epoch: Oct 23, 2025 • Age: 23 hours

当前状态

高度 540.4 km
速度 7.60 km/s
星下点 26.50°N, 84.81°W
发射日期 Jul 17, 2022
运行时间 3.2 years
类型 internet

技术详情

分类 Payload
质量 297.00 kg
干质量 275.00 kg
总质量 297.00 kg
长度 0.20 m
直径 2.80 m
跨度 9.00 m
形状 Box + pan
制造商 SPXS
平台类型 Starlink
阶段状态 In Orbit
所有者/国家 SPXS/US

大型星座

Loading constellations...